TimeCDT,TemperatureF,Dew PointF,Humidity,Sea Level PressureIn,VisibilityMPH,Wind Direction,Wind SpeedMPH,Gust SpeedMPH,PrecipitationIn,Events,Conditions,WindDirDegrees,DateUTC
12:53 AM,39.9,33.1,77,30.16,10.0,North,13.8,-,N/A,,Overcast,360,2011-11-03 05:53:00
1:53 AM,39.9,32.0,73,30.15,10.0,North,15.0,21.9,N/A,,Overcast,360,2011-11-03 06:53:00
2:53 AM,39.0,32.0,76,30.14,10.0,North,19.6,25.3,N/A,,Overcast,360,2011-11-03 07:53:00
3:53 AM,39.0,30.9,73,30.13,10.0,North,19.6,27.6,N/A,,Mostly Cloudy,360,2011-11-03 08:53:00
5:53 AM,37.0,30.0,76,30.19,10.0,North,20.7,25.3,N/A,,Clear,360,2011-11-03 10:53:00
6:53 AM,36.0,28.9,76,30.22,10.0,North,18.4,25.3,N/A,,Clear,360,2011-11-03 11:53:00
7:53 AM,37.0,28.9,73,30.24,10.0,North,17.3,25.3,N/A,,Clear,10,2011-11-03 12:53:00
8:53 AM,35.1,28.9,78,30.25,10.0,North,16.1,-,N/A,,Clear,350,2011-11-03 13:53:00
9:53 AM,39.9,30.9,70,30.25,10.0,North,12.7,19.6,N/A,,Clear,360,2011-11-03 14:53:00
10:53 AM,44.1,32.0,63,30.27,10.0,NNE,11.5,-,N/A,,Clear,20,2011-11-03 15:53:00
11:53 AM,46.9,32.0,56,30.26,10.0,NNE,11.5,-,N/A,,Clear,20,2011-11-03 16:53:00
1:53 PM,50.0,30.9,48,30.23,10.0,North,15.0,-,N/A,,Clear,360,2011-11-03 18:53:00
2:53 PM,50.0,30.0,46,30.22,10.0,North,18.4,25.3,N/A,,Clear,360,2011-11-03 19:53:00
3:53 PM,50.0,28.9,44,30.22,10.0,NNE,12.7,20.7,N/A,,Clear,20,2011-11-03 20:53:00
4:53 PM,48.9,30.9,50,30.24,10.0,North,13.8,-,N/A,,Clear,360,2011-11-03 21:53:00
6:53 PM,41.0,30.0,65,30.27,10.0,NNW,4.6,-,N/A,,Clear,340,2011-11-03 23:53:00
7:53 PM,36.0,28.9,76,30.28,10.0,NNW,4.6,-,N/A,,Clear,330,2011-11-04 00:53:00
8:53 PM,28.9,26.1,89,30.30,10.0,Calm,Calm,-,N/A,,Clear,0,2011-11-04 01:53:00
9:53 PM,28.9,26.1,89,30.29,10.0,Calm,Calm,-,N/A,,Clear,0,2011-11-04 02:53:00
10:53 PM,33.1,28.0,82,30.30,10.0,Calm,Calm,-,N/A,,Clear,0,2011-11-04 03:53:00
11:53 PM,26.1,24.1,92,30.30,10.0,Calm,Calm,-,N/A,,Clear,0,2011-11-04 04:53:00